Temp
-4 -4 -4 -4 -4 -4 -4 -4 -5 -5 -5 -5 -5 -5 -5 -5 -4 -4 -5 -5 -6 -6 -7 -6 -7 -7 -7 -8 -7 -7 -8 -7 -7 -7 -6 -5 -6 -5 -4 -4 -4 -4 -5 -5 -5
-4 -4 -4 -4 -4 -4 -4 -4 -4 -4 -4 -4 -5 -5 -5 -4 -4 -5 -5 -5 -5 -5 -6 -6 -7 -6 -7 -8 -8 -8 -8 -7 -7 -7 -6 -5 -5 -5 -5 -6 -5 -5 -4 -4 -5
-4 -4 -4 -4 -4 -4 -4 -4 -4 -4 -4 -4 -4 -4 -4 -4 -5 -5 -5 -5 -5 -5 -6 -6 -7 -6 -8 -8 -8 -8 -8 -7 -8 -7 -6 -5 -5 -5 -4 -5 -5 -5 -5 -4 -5
-4 -4 -4 -4 -4 -4 -4 -4 -4 -4 -4 -4 -4 -4 -4 -4 -4 -4 -4 -4 -4 -4 -5 -7 -6 -5 -7 -7 -7 -8 -7 -7 -8 -7 -6 -5 -4 -4 -5 -5 -5 -5 -5 -4 -4
-4 -4 -4 -4 -3 -3 -4 -4 -4 -4 -4 -4 -4 -4 -4 -4 -4 -4 -4 -5 -4 -5 -5 -6 -5 -3 -8 -8 -8 -8 -8 -8 -7 -7 -6 -5 -7 -7 -6 -5 -5 -5 -4 -4 -4
-4 -4 -4 -4 -3 -3 -3 -4 -4 -4 -4 -4 -4 -4 -5 -4 -4 -4 -4 -5 -5 -5 -5 -5 -6 -4 -7 -8 -7 -8 -8 -6 -7 -8 -7 -6 -6 -5 -6 -5 -4 -5 -5 -4 -4
-4 -4 -4 -3 -3 -3 -3 -3 -4 -4 -4 -4 -4 -4 -4 -5 -5 -4 -4 -4 -4 -5 -5 -5 -4 -3 -4 -6 -6 -7 -7 -7 -7 -6 -7 -6 -6 -6 -6 -6 -5 -4 -5 -5 -5
-4 -4 -4 -3 -3 -3 -3 -3 -4 -4 -4 -4 -4 -4 -4 -5 -5 -5 -5 -5 -5 -5 -5 -4 -4 -5 -4 -5 -6 -6 -7 -7 -7 -6 -7 -6 -6 -6 -6 -6 -5 -5 -4 -5 -5
-5 -4 -4 -4 -3 -3 -3 -4 -4 -4 -4 -4 -4 -4 -4 -5 -5 -5 -5 -5 -4 -4 -4 -4 -5 -5 -5 -6 -6 -7 -7 -7 -7 -6 -7 -6 -5 -6 -7 -6 -5 -5 -5 -4 -4
-5 -5 -4 -4 -3 -3 -3 -4 -4 -4 -4 -4 -4 -4 -5 -5 -5 -5 -4 -4 -4 -4 -4 -4 -5 -5 -5 -6 -7 -7 -7 -7 -6 -6 -7 -7 -6 -6 -7 -6 -6 -6 -5 -5 -5
-5 -5 -5 -4 -4 -4 -4 -4 -4 -4 -4 -4 -4 -4 -4 -4 -4 -4 -4 -4 -4 -4 -4 -4 -4 -5 -5 -7 -7 -6 -6 -6 -6 -6 -7 -7 -7 -6 -6 -6 -6 -5 -6 -6 -5
-6 -5 -5 -5 -5 -4 -4 -3 -4 -4 -4 -4 -4 -4 -4 -4 -4 -4 -4 -4 -4 -4 -3 -4 -5 -5 -3 -6 -6 -6 -6 -6 -6 -6 -7 -7 -7 -6 -5 -5 -5 -6 -5 -6 -5
-6 -6 -6 -5 -5 -5 -4 -4 -4 -4 -4 -4 -4 -4 -4 -4 -4 -4 -4 -4 -4 -4 -3 -4 -4 -5 -3 -6 -6 -6 -6 -6 -6 -6 -6 -7 -7 -7 -6 -5 -5 -5 -6 -6 -6
-6 -6 -6 -6 -5 -5 -4 -3 -3 -4 -4 -4 -4 -4 -4 -4 -4 -4 -4 -4 -4 -4 -4 -4 -4 -3 -6 -6 -6 -5 -6 -6 -6 -6 -6 -6 -6 -6 -6 -6 -5 -5 -5 -6 -6
-7 -7 -6 -6 -6 -5 -5 -5 -5 -4 -3 -4 -4 -4 -4 -3 -4 -4 -4 -4 -4 -4 -3 -4 -4 -3 -6 -5 -5 -5 -6 -6 -6 -6 -6 -6 -6 -6 -6 -6 -6 -6 -4 -4 -6
-7 -7 -7 -7 -7 -6 -6 -6 -5 -4 -3 -4 -4 -4 -4 -4 -4 -4 -5 -4 -5 -4 -4 -4 -4 -4 -6 -5 -6 -7 -7 -6 -6 -6 -5 -6 -6 -6 -6 -6 -6 -6 -5 -5 -4
-7 -7 -7 -7 -7 -6 -7 -6 -6 -4 -4 -5 -3 -3 -4 -4 -4 -4 -4 -3 -3 -3 -3 -4 -4 -4 -4 -4 -5 -7 -7 -5 -5 -5 -5 -5 -6 -6 -6 -6 -6 -6 -5 -6 -6
-7 -7 -7 -8 -8 -7 -7 -7 -5 -4 -5 -6 -5 -4 -4 -5 -4 -4 -4 -4 -4 -4 -4 -4 -4 -3 -4 -4 -4 -5 -5 -5 -6 -6 -6 -5 -5 -6 -6 -6 -6 -6 -6 -6 -6
-7 -7 -7 -8 -8 -8 -8 -6 -5 -5 -5 -7 -7 -8 -5 -5 -5 -5 -3 -4 -4 -4 -4 -4 -4 -5 -5 -4 -5 -6 -5 -5 -6 -6 -5 -6 -5 -5 -5 -5 -6 -6 -6 -7 -7
-8 -7 -8 -8 -8 -8 -8 -6 -5 -5 -6 -8 -8 -9 -8 -6 -5 -5 -5 -4 -5 -5 -5 -5 -5 -6 -5 -5 -5 -5 -6 -6 -6 -5 -5 -5 -6 -6 -6 -5 -5 -5 -6 -6 -7
-8 -7 -9 -9 -8 -8 -6 -5 -6 -6 -7 -8 -8 -8 -8 -8 -7 -5 -5 -5 -5 -5 -5 -6 -6 -6 -7 -5 -5 -5 -5 -6 -6 -5 -5 -6 -6 -6 -5 -5 -4 -6 -5 -6 -7
-8 -8 -10 -9 -8 -7 -6 -6 -7 -7 -8 -8 -7 -8 -8 -8 -8 -8 -6 -6 -5 -5 -5 -6 -6 -6 -7 -7 -6 -6 -5 -6 -6 -5 -6 -6 -6 -6 -6 -6 -5 -6 -5 -6 -6
-9 -8 -11 -10 -8 -7 -7 -7 -7 -8 -9 -8 -8 -8 -8 -8 -8 -8 -8 -7 -8 -7 -6 -6 -7 -6 -6 -7 -6 -7 -6 -7 -6 -6 -6 -6 -6 -6 -5 -5 -5 -5 -5 -5 -6
-11 -10 -11 -11 -9 -8 -8 -8 -7 -8 -9 -9 -8 -8 -9 -8 -8 -8 -8 -8 -8 -8 -8 -7 -6 -7 -6 -7 -7 -7 -6 -6 -7 -6 -6 -6 -6 -7 -6 -5 -5 -5 -5 -6 -4
-14 -14 -15 -12 -11 -10 -9 -8 -8 -8 -8 -9 -9 -8 -8 -8 -8 -8 -8 -8 -8 -8 -8 -8 -7 -7 -7 -6 -7 -7 -7 -7 -6 -6 -7 -7 -6 -7 -7 -6 -5 -6 -6 -6 -5
-17 -17 -16 -12 -10 -9 -8 -8 -8 -8 -8 -9 -9 -9 -8 -8 -8 -8 -8 -8 -8 -7 -8 -8 -8 -8 -8 -7 -7 -7 -7 -8 -7 -7 -7 -7 -7 -7 -7 -7 -6 -6 -7 -6 -6
-19 -17 -16 -13 -11 -10 -9 -9 -9 -9 -9 -9 -9 -10 -9 -7 -8 -9 -8 -8 -8 -8 -8 -8 -8 -8 -8 -7 -7 -7 -7 -7 -8 -8 -7 -7 -7 -7 -8 -8 -7 -7 -7 -6 -6
Height
5896 5897 5898 5899 5900 5901 5902 5904 5905 5905 5907 5909 5910 5911 5913 5914 5916 5919 5921 5924 5926 5928 5928 5929 5931 5932 5934 5932 5923 5928 5937 5939 5934 5930 5929 5929 5927 5925 5922 5921 5919 5918 5916 5916 5915
5896 5896 5897 5898 5899 5901 5902 5904 5905 5907 5908 5910 5911 5913 5914 5916 5918 5920 5922 5923 5925 5930 5932 5934 5935 5932 5928 5931 5935 5936 5944 5941 5935 5930 5927 5927 5930 5928 5928 5926 5925 5922 5920 5919 5919
5894 5895 5896 5897 5898 5900 5901 5903 5906 5908 5909 5910 5912 5914 5915 5917 5920 5921 5922 5924 5926 5929 5932 5933 5936 5933 5932 5936 5942 5945 5943 5942 5939 5933 5931 5929 5932 5931 5932 5932 5928 5928 5926 5924 5922
5892 5894 5895 5896 5897 5899 5900 5902 5905 5907 5909 5911 5912 5914 5916 5919 5922 5922 5924 5925 5927 5929 5931 5933 5934 5931 5932 5940 5943 5943 5945 5942 5939 5935 5932 5932 5931 5930 5930 5934 5932 5930 5929 5927 5926
5890 5891 5893 5895 5896 5897 5899 5901 5903 5907 5909 5911 5913 5914 5917 5919 5921 5923 5924 5927 5928 5929 5931 5931 5933 5930 5933 5942 5942 5943 5945 5943 5942 5938 5935 5937 5934 5935 5933 5932 5935 5932 5929 5929 5928
5886 5889 5890 5892 5894 5896 5898 5900 5902 5905 5908 5910 5913 5915 5917 5919 5921 5922 5924 5926 5927 5929 5930 5930 5935 5930 5932 5938 5940 5942 5945 5944 5945 5940 5938 5941 5941 5940 5938 5934 5933 5936 5934 5932 5930
5882 5885 5887 5889 5892 5894 5896 5898 5900 5903 5906 5909 5911 5914 5917 5920 5921 5923 5925 5926 5927 5929 5930 5930 5932 5934 5932 5935 5939 5944 5945 5945 5947 5943 5943 5942 5945 5941 5939 5938 5935 5934 5935 5935 5934
5878 5880 5883 5886 5888 5891 5893 5896 5898 5901 5903 5907 5909 5913 5916 5919 5919 5923 5924 5926 5928 5929 5931 5933 5933 5935 5939 5939 5942 5944 5945 5948 5947 5947 5945 5945 5946 5943 5942 5940 5939 5937 5937 5936 5937
5873 5876 5879 5882 5885 5887 5890 5893 5896 5898 5901 5904 5908 5912 5915 5918 5920 5921 5924 5926 5928 5929 5931 5934 5936 5938 5940 5937 5939 5944 5948 5950 5950 5949 5945 5944 5946 5947 5944 5943 5942 5941 5938 5936 5935
5868 5871 5874 5877 5880 5884 5886 5889 5892 5895 5898 5902 5905 5910 5912 5915 5918 5921 5923 5925 5928 5929 5932 5935 5936 5938 5937 5937 5940 5944 5950 5952 5953 5951 5949 5942 5944 5947 5949 5947 5946 5945 5943 5941 5939
5861 5865 5869 5872 5875 5879 5882 5885 5889 5892 5895 5897 5902 5903 5909 5912 5916 5919 5922 5924 5927 5929 5932 5934 5937 5938 5938 5938 5942 5947 5953 5955 5955 5955 5950 5945 5945 5946 5948 5951 5950 5949 5947 5946 5943
5855 5858 5862 5866 5870 5873 5876 5879 5885 5892 5894 5896 5899 5903 5907 5910 5913 5917 5920 5924 5926 5928 5930 5935 5936 5938 5937 5937 5943 5950 5952 5955 5956 5957 5952 5949 5948 5945 5945 5947 5951 5950 5947 5948 5947
5847 5851 5855 5859 5864 5867 5870 5874 5878 5881 5885 5892 5897 5901 5904 5908 5910 5915 5919 5922 5924 5927 5930 5933 5935 5937 5937 5936 5945 5950 5953 5955 5956 5957 5954 5950 5948 5945 5946 5946 5948 5950 5948 5947 5947
5839 5843 5847 5851 5858 5858 5861 5865 5869 5875 5880 5887 5889 5895 5899 5902 5907 5911 5915 5919 5922 5926 5928 5930 5932 5930 5937 5938 5944 5949 5953 5955 5953 5953 5955 5954 5950 5949 5948 5945 5946 5947 5950 5949 5947
5831 5834 5837 5842 5848 5851 5857 5862 5865 5868 5874 5884 5888 5895 5898 5902 5907 5909 5912 5915 5920 5923 5926 5930 5929 5930 5934 5939 5944 5947 5947 5951 5953 5952 5953 5952 5953 5950 5948 5947 5946 5945 5947 5947 5948
5821 5825 5828 5834 5837 5839 5849 5850 5855 5862 5867 5874 5877 5882 5887 5895 5899 5902 5907 5912 5916 5919 5922 5925 5928 5930 5932 5936 5940 5943 5945 5947 5947 5950 5948 5949 5950 5949 5948 5948 5945 5941 5940 5940 5944
5810 5815 5819 5825 5827 5831 5837 5841 5847 5851 5867 5868 5870 5877 5884 5891 5892 5896 5902 5905 5909 5914 5918 5921 5924 5926 5929 5933 5935 5938 5940 5944 5947 5947 5948 5949 5948 5946 5947 5947 5945 5942 5940 5935 5934
5797 5802 5809 5814 5815 5820 5825 5830 5835 5847 5860 5864 5864 5873 5878 5884 5885 5890 5896 5900 5905 5910 5915 5918 5921 5924 5926 5929 5933 5935 5937 5942 5942 5944 5946 5944 5946 5945 5945 5945 5943 5941 5938 5936 5933
5782 5788 5797 5801 5803 5808 5812 5816 5829 5842 5855 5859 5859 5863 5868 5876 5881 5884 5887 5895 5901 5906 5909 5913 5916 5920 5923 5927 5929 5932 5934 5939 5938 5943 5945 5944 5945 5943 5943 5943 5943 5941 5941 5936 5931
5764 5773 5784 5785 5789 5795 5799 5810 5821 5835 5848 5851 5854 5860 5863 5868 5872 5876 5879 5889 5894 5899 5905 5909 5912 5916 5919 5922 5925 5926 5934 5935 5935 5940 5942 5943 5941 5941 5941 5941 5941 5943 5942 5940 5932
5746 5756 5766 5769 5772 5780 5791 5803 5813 5824 5831 5836 5840 5844 5854 5862 5866 5870 5875 5881 5888 5893 5898 5904 5906 5911 5917 5915 5921 5923 5925 5929 5934 5938 5939 5939 5937 5937 5937 5936 5938 5939 5940 5937 5933
5724 5738 5742 5748 5758 5770 5780 5790 5799 5809 5814 5823 5831 5834 5842 5851 5861 5864 5867 5872 5879 5886 5890 5897 5900 5903 5907 5912 5916 5919 5922 5924 5926 5932 5934 5935 5934 5934 5934 5934 5933 5935 5935 5933 5930
5701 5718 5722 5730 5743 5756 5766 5774 5782 5794 5805 5814 5819 5825 5836 5841 5849 5855 5862 5870 5873 5878 5883 5890 5892 5897 5902 5906 5910 5912 5918 5919 5922 5926 5927 5929 5927 5928 5928 5932 5932 5929 5932 5932 5926
5679 5693 5702 5713 5727 5736 5745 5757 5767 5781 5793 5801 5811 5816 5823 5828 5837 5846 5852 5860 5869 5873 5877 5882 5886 5889 5894 5900 5907 5908 5912 5915 5916 5919 5923 5924 5921 5920 5920 5926 5928 5929 5926 5926 5921
5657 5672 5672 5686 5706 5721 5733 5742 5752 5766 5784 5790 5798 5802 5813 5820 5828 5836 5844 5854 5862 5869 5872 5875 5877 5883 5890 5895 5899 5904 5905 5909 5910 5913 5917 5923 5919 5916 5912 5916 5925 5924 5922 5919 5919
5638 5647 5652 5676 5688 5699 5713 5726 5742 5758 5764 5777 5785 5797 5803 5812 5820 5830 5838 5844 5853 5863 5865 5868 5869 5876 5878 5887 5892 5895 5897 5898 5904 5909 5912 5915 5913 5908 5907 5909 5913 5917 5914 5912 5913
5615 5632 5643 5660 5674 5688 5703 5713 5724 5737 5752 5765 5775 5786 5790 5802 5815 5824 5830 5836 5843 5850 5855 5860 5862 5867 5870 5878 5883 5884 5889 5895 5898 5899 5905 5907 5903 5901 5902 5904 5908 5909 5907 5907 5908
Wind_Speed
8 8 8 9 11 12 12 11 13 13 13 14 16 17 17 21 23 24 23 26 25 24 24 33 34 35 33 31 31 28 18 6 9 11 10 10 16 19 21 20 19 17 15 13 11
9 10 9 10 12 13 13 13 13 14 14 15 16 15 17 24 25 23 22 23 23 23 25 31 22 28 32 32 27 17 7 7 11 11 19 16 12 14 18 15 16 18 17 15 13
11 12 11 10 12 15 15 14 14 14 16 17 18 17 18 23 22 20 19 19 16 19 29 29 13 23 27 23 16 7 3 7 3 8 10 14 15 16 14 15 14 16 17 16 15
13 12 13 11 12 15 16 16 15 15 16 17 18 18 19 20 19 17 17 17 17 16 22 25 20 22 25 17 16 6 6 8 5 2 9 12 15 20 20 16 13 15 17 18 18
15 14 15 13 13 16 17 17 17 16 17 16 17 17 17 17 16 16 16 15 15 17 19 21 18 10 23 19 18 4 9 5 4 5 5 12 18 20 18 15 15 14 18 17 18
18 16 16 16 13 17 18 18 18 18 17 18 16 16 17 15 15 16 16 14 13 14 16 14 12 7 25 21 16 12 10 11 7 1 6 13 13 17 18 15 13 14 13 15 17
22 20 18 19 16 17 20 19 19 20 19 18 18 17 17 15 15 15 14 14 14 14 14 12 11 9 18 18 10 13 16 6 11 3 11 9 20 21 22 17 13 12 14 15 14
25 23 21 20 19 18 22 22 20 20 20 19 18 18 18 16 18 14 14 14 14 13 11 9 16 16 24 29 23 17 15 5 11 16 14 14 14 27 24 16 12 11 12 13 14
28 27 24 22 23 20 23 24 23 22 21 21 19 17 17 17 16 16 15 15 14 14 13 14 19 28 28 31 27 19 10 12 8 21 15 11 20 26 23 13 11 10 12 13 14
30 29 28 25 25 24 25 27 26 25 24 21 21 22 22 21 18 18 18 16 15 15 14 18 31 24 22 25 17 12 6 10 12 18 15 18 17 20 20 15 14 16 13 11 12
30 32 31 29 27 28 27 30 30 30 27 28 26 27 24 22 21 21 20 18 16 15 15 17 20 21 23 19 13 10 8 8 10 10 10 18 19 23 12 14 22 12 12 13 11
30 33 34 33 31 31 31 32 30 27 28 25 26 23 24 23 23 23 22 19 16 14 13 15 22 18 15 15 5 18 9 17 15 19 10 13 15 23 20 24 23 21 10 9 11
29 32 35 36 35 33 34 33 34 34 34 31 27 25 25 23 24 23 22 20 19 17 13 13 16 15 11 11 21 22 18 11 17 15 9 10 18 24 28 28 25 19 9 7 7
30 30 35 38 38 38 40 40 37 37 36 33 33 31 29 28 26 25 25 25 23 18 16 16 17 14 10 11 30 28 18 9 17 19 11 3 19 23 26 30 29 18 12 5 7
36 33 32 38 39 41 39 36 37 38 39 34 33 27 28 27 24 25 27 27 24 22 21 14 13 12 10 15 32 30 12 13 16 11 11 13 17 16 25 27 28 28 18 10 6
39 39 36 34 38 47 41 42 44 44 40 34 41 38 37 32 32 31 28 28 27 27 23 21 17 16 18 16 30 18 13 21 24 26 19 15 17 15 22 19 26 26 26 30 15
43 42 43 38 39 43 41 44 44 48 36 37 41 40 36 33 36 35 32 32 31 29 26 24 23 19 18 19 26 22 18 14 5 6 6 1 8 20 20 22 23 27 35 36 38
49 47 45 44 45 43 45 49 52 48 39 34 42 34 36 36 39 36 33 34 33 29 25 23 24 22 22 19 19 19 17 16 10 6 17 6 16 26 25 27 28 33 35 38 38
54 53 49 48 51 49 48 54 52 46 39 31 29 23 37 34 37 36 38 33 32 30 29 27 23 20 19 18 21 17 17 18 19 12 8 14 18 21 24 26 28 32 34 36 38
61 59 52 53 54 53 54 48 51 44 35 35 28 21 23 30 37 39 39 34 32 32 29 26 21 16 21 20 21 22 11 27 23 18 9 14 19 19 23 26 32 16 18 21 29
67 65 56 57 59 58 54 44 44 44 42 51 43 38 31 24 25 38 38 36 33 34 32 27 28 20 12 23 20 27 27 29 23 17 8 12 21 24 29 33 31 26 23 26 25
72 68 62 64 64 59 56 51 47 45 46 51 57 48 37 31 28 23 39 37 34 32 36 34 35 30 27 25 26 20 28 26 28 28 21 19 23 27 28 32 35 30 26 29 29
74 73 66 67 67 62 59 57 56 52 49 52 57 55 42 39 39 33 25 30 30 30 35 35 40 36 32 22 28 31 22 22 25 32 30 27 30 31 32 27 27 34 33 30 35
75 75 69 69 69 69 65 62 61 55 52 57 55 61 53 48 46 44 38 32 31 28 25 27 43 43 39 30 30 33 23 25 33 33 34 29 32 29 32 32 34 29 34 22 22
73 69 64 73 70 68 68 67 64 60 54 58 62 61 60 58 49 49 45 36 34 30 32 31 38 43 40 37 25 25 27 27 25 27 24 25 26 33 41 42 28 29 30 23 31
61 62 70 75 78 80 75 71 65 60 60 59 63 60 59 58 55 48 50 41 38 37 43 37 38 41 41 41 38 33 24 30 25 20 31 29 35 43 42 42 38 28 28 31 30
48 57 67 75 76 76 76 73 70 67 62 60 60 58 62 55 53 50 51 49 45 41 40 45 42 41 46 41 42 46 39 25 33 33 22 39 41 44 34 32 33 33 37 38 40
Wind_Direction
217 205 191 192 185 180 176 179 171 170 168 157 148 148 152 154 152 150 148 147 146 145 140 124 112 100 85 68 21 44 37 302 342 336 19 59 36 36 51 41 46 45 46 50 55
225 213 207 199 196 190 184 182 182 174 170 164 159 149 148 153 153 152 152 150 151 148 137 125 111 93 73 65 54 7 308 341 290 328 352 15 29 7 58 48 48 45 45 43 49
227 219 215 212 204 196 193 186 185 182 175 171 167 158 146 156 158 156 153 154 149 144 142 142 133 91 79 88 94 157 83 327 137 6 345 2 32 47 43 59 48 57 54 50 50
230 229 217 217 212 201 195 195 187 187 186 179 173 168 164 163 162 169 159 155 153 149 146 148 154 118 98 88 70 7 16 14 118 268 315 6 33 35 34 50 52 55 57 52 53
232 234 226 220 216 207 197 195 194 188 188 188 182 174 164 163 166 167 161 161 160 156 156 161 186 183 111 123 103 291 90 329 170 317 304 42 30 14 10 13 54 51 56 56 56
227 231 232 224 221 210 201 195 194 193 191 189 189 184 174 170 171 167 166 166 162 158 166 176 182 209 142 162 148 173 135 68 66 131 335 54 49 35 22 14 24 53 58 61 56
228 226 230 228 224 212 203 198 194 193 195 192 190 186 183 173 177 173 170 164 161 160 161 156 139 141 136 145 119 119 100 21 35 43 11 14 21 35 18 12 20 32 45 60 63
230 225 224 227 225 216 205 201 196 195 196 196 192 187 188 188 176 180 171 164 160 154 150 150 122 117 109 103 102 89 119 202 324 351 1 31 49 21 10 17 15 26 46 51 63
227 227 223 223 222 220 210 205 201 197 197 196 194 191 183 191 185 180 175 171 162 156 153 137 127 130 117 98 93 87 104 187 278 335 337 343 41 26 10 20 28 39 43 44 45
233 226 225 221 220 220 213 210 206 202 197 194 191 189 182 192 188 183 182 176 167 163 156 143 141 135 111 97 82 82 87 258 280 326 311 303 344 17 31 24 55 55 51 50 50
234 231 225 223 220 217 218 214 212 207 202 199 193 189 195 185 187 185 184 182 177 168 161 150 156 150 125 94 76 97 124 264 265 310 254 295 322 341 29 14 12 10 46 49 53
236 232 229 224 223 218 218 220 218 216 213 208 204 192 198 190 187 188 187 186 180 180 178 153 158 159 145 98 80 136 146 197 253 288 241 277 297 310 340 2 8 7 350 16 34
244 235 231 227 222 223 218 218 216 215 214 213 213 201 202 200 192 190 191 192 189 193 184 163 172 184 152 131 162 150 125 229 270 285 232 277 282 291 314 333 345 13 12 352 348
240 241 234 230 226 223 222 219 216 220 219 214 213 210 204 200 198 196 196 198 199 192 194 189 203 163 151 161 171 159 151 157 249 272 246 263 267 281 304 315 328 345 16 88 12
237 235 237 233 230 227 224 223 221 219 221 219 218 220 216 214 208 203 207 207 205 202 204 196 215 185 186 173 175 172 183 213 218 232 242 238 259 289 289 289 309 311 341 15 85
240 234 233 232 232 229 224 224 221 219 217 219 219 214 215 211 213 209 208 210 211 214 205 201 201 206 192 193 175 173 210 216 223 230 244 198 228 259 284 295 294 306 324 332 348
238 237 234 227 230 233 230 226 223 221 211 219 223 219 219 215 221 217 212 214 215 215 214 209 211 195 201 205 186 180 216 209 166 85 62 48 234 263 278 276 289 295 310 320 319
234 236 234 230 228 228 230 228 224 218 213 215 232 223 218 217 221 225 217 219 215 216 217 219 221 212 207 214 210 205 209 141 113 350 321 204 254 242 259 277 293 300 307 306 305
234 233 232 231 230 226 226 229 223 222 211 212 212 239 230 218 220 226 220 218 217 219 220 218 220 220 219 212 216 207 220 172 201 220 202 211 226 241 266 280 294 289 298 301 294
233 232 228 227 230 229 226 230 226 221 209 183 198 220 259 231 221 218 229 211 215 217 217 223 217 221 235 217 217 208 199 195 204 196 206 272 270 257 267 279 283 293 305 308 286
229 229 225 224 226 228 229 229 228 221 211 195 183 181 204 250 237 222 224 229 216 218 214 213 220 197 239 242 221 219 196 194 205 185 202 280 230 237 253 268 278 290 295 309 312
226 225 220 222 226 228 226 225 221 214 206 202 205 190 188 190 244 243 227 230 229 216 217 207 216 196 201 236 257 254 234 211 208 185 210 243 252 248 258 269 272 287 296 302 302
224 222 222 219 223 225 226 224 221 213 202 205 208 199 185 188 203 214 241 228 235 234 221 203 211 206 193 206 234 249 240 221 232 197 206 231 248 259 253 259 272 287 286 289 288
221 220 221 219 220 221 220 220 220 218 204 201 209 207 190 189 198 200 207 214 220 237 249 220 206 214 198 190 224 241 251 246 232 219 214 225 244 265 272 264 265 277 288 282 284
222 220 223 215 213 218 222 222 220 215 210 203 208 212 211 203 194 202 201 201 203 220 235 238 222 215 212 198 201 239 254 253 255 233 237 217 248 262 264 263 264 274 271 269 278
228 222 223 218 216 215 215 217 221 218 213 206 209 216 213 213 205 202 200 193 194 213 229 230 234 221 224 207 202 210 225 256 261 255 225 227 242 253 263 268 267 269 273 277 284
227 223 223 217 216 217 215 215 217 213 215 210 209 211 217 219 212 204 201 194 194 203 214 232 234 228 230 217 206 208 210 216 254 250 243 220 237 254 257 262 269 276 281 285 293